This demonstration page uses our WeatherBlox Daily Observations layout. Learn more.

Left ArrowRight Arrow

44.8408, -93.29828

Hourly Observations for July 7, 2021

Temp ( °F °C ) Dew Point ( °F °C ) Humidity (%) Winds ( mph kmh ) Pressure ( in mb ) Visibility ( mi km ) Precip ( " mm )
12:53 am 00:53 Cloudy with Light Rain 59 15 58 14.4 96 96 NE 13 20 30.01 1016 6 10 0.02 0.51
1:22 am 01:22 Cloudy with Light Rain 59 15 58 14.4 96 96 NNE 8 13 30.01 1016 9 14 0.00 0.00
1:40 am 01:40 Cloudy with Mist and Fog 59 15 57 13.9 93 93 N 7 11 30.01 1016 6 10 0.00 0.00
1:53 am 01:53 Cloudy 59 15 57 13.9 93 93 N 8 13 30.00 1016 9 14 0.00 0.00
2:53 am 02:53 Cloudy 58 14.4 56 13.3 93 93 N 8 13 30.00 1016 10 16 0.00 0.00
3:53 am 03:53 Cloudy 56 13.3 54 12.2 93 93 N 14 22 30.01 1016 10 16 0.00 0.00
4:30 am 04:30 Cloudy 56 13.3 52 11.1 87 87 N 13 20 30.00 1016 10 16 0.00 0.00
4:53 am 04:53 Cloudy 56 13.3 52 11.1 87 87 N 13 20 29.99 1016 10 16 0.00 0.00
5:53 am 05:53 Cloudy 56 13.3 52 11.1 87 87 N 8 13 30.00 1016 10 16 0.00 0.00
6:53 am 06:53 Cloudy 56 13.3 52 11.1 87 87 N 10 17 30.01 1016 10 16 0.00 0.00
7:53 am 07:53 Cloudy 56 13.3 53 11.7 90 90 N 8 13 30.02 1017 10 16 0.00 0.00
8:14 am 08:14 Cloudy 56 13.3 53 11.7 90 90 N 10 17 30.03 1017 10 16 0.00 0.00
8:53 am 08:53 Cloudy 57 13.9 54 12.2 90 90 N 12 19 30.03 1017 10 16 0.00 0.00
9:53 am 09:53 Cloudy 59 15 54 12.2 83 83 N 12 19 30.03 1017 10 16 0.00 0.00
10:53 am 10:53 Cloudy 60 15.6 54 12.2 80 80 N 9 15 30.04 1017 10 16 0.00 0.00
11:53 am 11:53 Cloudy 62 16.7 54 12.2 75 75 NNE 13 20 30.03 1017 10 16 0.00 0.00
12:10 pm 12:10 Cloudy 63 17.2 54 12.2 73 73 N 9 15 30.02 1016 10 16 0.00 0.00
12:29 pm 12:29 Cloudy 63 17.2 55 12.8 76 76 NNE 9 15 30.02 1016 10 16 0.00 0.00
12:53 pm 12:53 Cloudy 65 18.3 55 12.8 70 70 NNE 10 17 30.02 1017 10 16 0.00 0.00
1:53 pm 13:53 Cloudy 65 18.3 55 12.8 70 70 N 14 22 30.02 1017 10 16 0.00 0.00
2:53 pm 14:53 Cloudy 65 18.3 55 12.8 70 70 NNE 14 22 30.01 1016 10 16 0.00 0.00
3:53 pm 15:53 Cloudy 64 17.8 54 12.2 70 70 NNE 14 22 30.01 1016 10 16 0.00 0.00
4:53 pm 16:53 Cloudy 65 18.3 55 12.8 70 70 NE 10 17 30.01 1016 10 16 0.00 0.00
5:53 pm 17:53 Cloudy 65 18.3 55 12.8 70 70 NNE 10 17 30.00 1016 9 14 0.00 0.00
6:53 pm 18:53 Cloudy 65 18.3 54 12.2 68 68 NNE 10 17 29.99 1016 10 16 0.00 0.00
7:13 pm 19:13 Cloudy 66 18.9 54 12.2 65 65 NNE 8 13 29.98 1015 10 16 0.00 0.00
7:49 pm 19:49 Cloudy 64 18 54 12 68 68 NNE 12 19 29.97 1015 10 16 0.00 0.00
7:53 pm 19:53 Cloudy 65 18.3 54 12.2 68 68 NNE 10 17 29.99 1016 10 16 0.00 0.00
8:53 pm 20:53 Cloudy 65 18.3 54 12.2 68 68 NNE 8 13 30.00 1016 10 16 0.00 0.00
9:53 pm 21:53 Cloudy 64 17.8 53 11.7 68 68 NNE 6 9 30.01 1016 10 16 0.00 0.00
10:53 pm 22:53 Cloudy 63 17.2 54 12.2 73 73 N 6 9 30.01 1016 10 16 0.00 0.00
11:53 pm 23:53 Cloudy 62 16.7 52 11.1 70 70 N 5 7 30.01 1016 10 16 0.00 0.00

Powered by AerisWeather